User: anonymous   Login
Location: Caltech
(34.1382°N, 118.1253°W)
Time: 17:12:25
(UTC-07:00)
Language:

Oscar 16 - Orbit

View from above orbital plane
View from above orbital plane
View from above satellite
View from above satellite

Ground track
Ground track

The orbit data is extracted from the following two-line orbital elements,

1 20439U 90005D   16180.51402583  .00000022  00000-0  24086-4 0  9994
2 20439  98.5742 116.9103 0011802 122.6265 351.0150 14.32635722380766
Epoch (UTC): 28 June 2016 12:20:11
Eccentricity: 0.0011802
inclination: 98.5742°
perigee height: 774 km
apogee height: 791 km
right ascension of ascending node: 116.9103°
argument of perigee: 122.6265°
revolutions per day: 14.32635722
mean anomaly at epoch: 351.0150°
orbit number at epoch: 38076

The dashed part of the orbit path shows where the satellite is in the earth's shadow,  

DLR